Вернуться в каталог

FENGYUN 1C DEB

LostSSO
NORAD 38490·DEBRIS·🇨🇳 China

Запущен May 10, 1999 с Taiyuan Satellite Launch Center

Loading…

Ближайшие Пролёты (ближайшие 24 часа)

TLE

УстаревшееSource: Space-Track

Эпоха: Jan 2, 2015, 10:42 UTC

1 38490U 99025ERZ 15002.44632846  .00001048  00000-0  67131-3 0  9998
2 38490  99.1386  78.7395 0050824  70.6028 290.0622 14.04970804222254

Отслеживайте FENGYUN 1C DEB в реальном времени с AllMySat

Download on the App Store